Location: Walnut Hills Mobile Home Park
(34.0445°N, 117.8184°W)
Time: 02:16:57
(UTC+00:00)

KORONAS-FOTON - Pass Details

Date: 17 December 2025
Orbit: 433 x 448 km, 82.4° (Epoch: 15 January)

Event Time Altitude Azimuth Distance (km) Brightness Sun altitude
Exits shadow 14:01:25 - 345° (NNW) 2,130 6.6 -10.1°
Reaches altitude 10° 14:02:51 10° 340° (NNW) 1,543 5.8 -9.9°
Maximum altitude 14:06:04 46° 266° (W) 593 3.7 -9.2°
Drops below altitude 10° 14:09:18 10° 192° (SSW) 1,537 6.3 -8.6°
Sets 14:11:23 0° 186° (S) 2,404 7.4 -8.2°
